Tracking 33744 objects as of 12-Apr-2026
HD Live streaming from Space Station
objects crossing your sky now

STARLINK-36249

Track STARLINK-36249 now!
10-day predictions
STARLINK-36249 is classified as:


NORAD ID: 68532
Int'l Code: 2026-068AA
Perigee: 334.4 km
Apogee: 335.7 km
Inclination: 53.2 °
Period: 91.1 minutes
Semi major axis: 6706 km
RCS: Unknown
Launch date: March 30, 2026
Source: United States (US)
Launch site: AIR FORCE EASTERN TEST RANGE (AFETR)
Your satellite tracking list
Your tracking list is empty




NASA's NSSDC Master Catalog

Two Line Element Set (TLE):
1 68532U 26068AA  26102.50001156 -.00052064  00000-0 -26155-3 0  9996
2 68532  53.1596 339.6623 0000978  96.5403  66.0533 15.80895657  3198
Source of the keplerian elements: AFSPC